This is the latest recevied weather packets stored in our database for station/object KE2HEH. If no packets are shown the sender has not sent any weather packets the latest 10 day(s).
| Time | Temp. | Humidity | Pressure | Rain* | Wind** | Luminosity | Snow |
|---|---|---|---|---|---|---|---|
| 1778176938 | 13.89° C | 70% | 1009.8 hPa | 0 mm | - | 572 W/m² | - |
| 1778176633 | 13.89° C | 70% | 1009.7 hPa | 0 mm | - | 570 W/m² | - |
| 1778176330 | 13.89° C | 72% | 1009.9 hPa | 0 mm | - | 570 W/m² | - |
| 1778176028 | 13.89° C | 72% | 1009.9 hPa | 0 mm | - | 554 W/m² | - |
| 1778175725 | 13.33° C | 73% | 1009.9 hPa | 0 mm | - | 554 W/m² | - |
| 1778175423 | 13.33° C | 74% | 1009.9 hPa | 0 mm | - | 550 W/m² | - |
| 1778175119 | 13.33° C | 75% | 1010 hPa | 0 mm | - | 551 W/m² | - |
| 1778174816 | 13.89° C | 75% | 1009.9 hPa | 0 mm | - | 551 W/m² | - |
| 1778174513 | 13.89° C | 76% | 1010 hPa | 0 mm | - | 548 W/m² | - |
| 1778174213 | 13.89° C | 75% | 1010 hPa | 0 mm | - | 555 W/m² | - |
| 1778173910 | 13.89° C | 74% | 1009.8 hPa | 0 mm | - | 569 W/m² | - |
| 1778173607 | 13.33° C | 74% | 1010.3 hPa | 0 mm | - | 567 W/m² | - |
| 1778173304 | 13.33° C | 73% | 1010.4 hPa | 0 mm | - | 563 W/m² | - |
| 1778173000 | 12.78° C | 75% | 1010.3 hPa | 0 mm | - | 557 W/m² | - |
| 1778172696 | 12.78° C | 78% | 1010.3 hPa | 0 mm | - | 556 W/m² | - |
| 1778172392 | 12.78° C | 76% | 1010.6 hPa | 0 mm | - | 406 W/m² | - |
| 1778172090 | 12.78° C | 76% | 1010.4 hPa | 0 mm | - | 646 W/m² | - |
| 1778171787 | 13.33° C | 75% | 1010.4 hPa | 0 mm | - | 637 W/m² | - |
| 1778171485 | 13.33° C | 75% | 1010.7 hPa | 0 mm | - | 608 W/m² | - |
| 1778171180 | 12.78° C | 75% | 1010.9 hPa | 0 mm | - | 368 W/m² | - |
| 1778170877 | 13.33° C | 74% | 1010.7 hPa | 0 mm | - | 367 W/m² | - |
| 1778170573 | 15° C | 69% | 1011 hPa | 0 mm | - | 595 W/m² | - |
| 1778170270 | 15.56° C | 49% | 1010.8 hPa | 0 mm | - | 590 W/m² | - |
| 1778169966 | 15° C | 50% | 1010.9 hPa | 0 mm | - | 623 W/m² | - |
| 1778169663 | 15° C | 55% | 1011.1 hPa | 0 mm | - | 655 W/m² | - |
* Rain latest hour (hover to see other rain measurements)
** Current wind speed in m/s (hover to see current wind gust speed)